| time (UTC) | temp F | wind direction | speed MPH | gust MPH | rain 1hr in | rain 24hr in | rain mn in | humidity % | barometer mb |
| 20260505011008 | 75 | 213 | 4.0 | 10.0 | 0.00 | 0.00 | 0.00 | 69 | 1014.5 |
| 20260505010508 | 76 | 204 | 3.0 | 8.0 | 0.00 | 0.00 | 0.00 | 69 | 1014.1 |
| 20260505010030 | 76 | 284 | 3.0 | 8.0 | 0.00 | 0.00 | 0.00 | 69 | 1014.1 |
| 20260505005508 | 76 | 127 | 2.0 | 10.0 | 0.00 | 0.00 | 0.00 | 68 | 1014.1 |
| 20260505005009 | 76 | 135 | 4.0 | 10.0 | 0.00 | 0.00 | 0.00 | 68 | 1014.0 |
| 20260505004508 | 76 | 179 | 2.0 | 9.0 | 0.00 | 0.00 | 0.00 | 67 | 1014.1 |
| 20260505004004 | 76 | 119 | 3.0 | 9.0 | 0.00 | 0.00 | 0.00 | 68 | 1014.1 |
| 20260505003504 | 77 | 130 | 2.0 | 9.0 | 0.00 | 0.00 | 0.00 | 67 | 1013.9 |
| 20260505003015 | 77 | 135 | 3.0 | 9.0 | 0.00 | 0.00 | 0.00 | 66 | 1013.9 |
| 20260505002504 | 77 | 168 | 4.0 | 8.0 | 0.00 | 0.00 | 0.00 | 66 | 1013.9 |
| 20260505002007 | 77 | 196 | 2.0 | 8.0 | 0.00 | 0.00 | 0.00 | 65 | 1013.9 |
| 20260505001520 | 78 | 144 | 3.0 | 8.0 | 0.00 | 0.00 | 0.00 | 65 | 1013.8 |
| 20260505001007 | 78 | 154 | 3.0 | 7.0 | 0.00 | 0.00 | 0.00 | 65 | 1013.6 |
| 20260505000504 | 78 | 208 | 2.0 | 8.0 | 0.00 | 0.00 | 0.00 | 64 | 1013.4 |
| 20260505000023 | 78 | 190 | 2.0 | 8.0 | 0.00 | 0.00 | 0.00 | 63 | 1013.3 |
| 20260504235510 | 78 | 182 | 3.0 | 7.0 | 0.00 | 0.00 | 0.00 | 63 | 1013.1 |
| 20260504235011 | 79 | 169 | 2.0 | 12.0 | 0.00 | 0.00 | 0.00 | 63 | 1013.0 |
| 20260504234528 | 79 | 192 | 3.0 | 12.0 | 0.00 | 0.00 | 0.00 | 62 | 1012.9 |
| 20260504234009 | 79 | 185 | 5.0 | 12.0 | 0.00 | 0.00 | 0.00 | 61 | 1013.0 |
| 20260504233505 | 79 | 177 | 4.0 | 12.0 | 0.00 | 0.00 | 0.00 | 62 | 1012.9 |
| 20260504233014 | 79 | 209 | 3.0 | 8.0 | 0.00 | 0.00 | 0.00 | 60 | 1012.7 |
| 20260504232505 | 79 | 156 | 4.0 | 10.0 | 0.00 | 0.00 | 0.00 | 60 | 1012.8 |
| 20260504232007 | 80 | 216 | 3.0 | 10.0 | 0.00 | 0.00 | 0.00 | 60 | 1012.8 |
| 20260504231520 | 80 | 156 | 3.0 | 8.0 | 0.00 | 0.00 | 0.00 | 59 | 1012.6 |
| 20260504231006 | 80 | 95 | 4.0 | 8.0 | 0.00 | 0.00 | 0.00 | 59 | 1012.6 |
| 20260504230508 | 80 | 102 | 3.0 | 8.0 | 0.00 | 0.00 | 0.00 | 61 | 1012.6 |
| 20260504230022 | 80 | 160 | 3.0 | 8.0 | 0.00 | 0.00 | 0.00 | 59 | 1012.6 |
| 20260504225510 | 80 | 73 | 3.0 | 8.0 | 0.00 | 0.00 | 0.00 | 58 | 1012.6 |
| 20260504225009 | 81 | 102 | 2.0 | 5.0 | 0.00 | 0.00 | 0.00 | 55 | 1012.5 |
| 20260504224531 | 81 | 118 | 2.0 | 9.0 | 0.00 | 0.00 | 0.00 | 55 | 1012.7 |
| 20260504224009 | 81 | 150 | 2.0 | 9.0 | 0.00 | 0.00 | 0.00 | 55 | 1012.7 |
| 20260504223511 | 82 | 206 | 2.0 | 9.0 | 0.00 | 0.00 | 0.00 | 56 | 1012.8 |
| 20260504223030 | 82 | 177 | 3.0 | 9.0 | 0.00 | 0.00 | 0.00 | 55 | 1012.9 |
| 20260504222505 | 82 | 141 | 4.0 | 12.0 | 0.00 | 0.00 | 0.00 | 54 | 1013.0 |
| 20260504222006 | 82 | 214 | 5.0 | 12.0 | 0.00 | 0.00 | 0.00 | 54 | 1012.9 |
| 20260504221515 | 82 | 240 | 2.0 | 7.0 | 0.00 | 0.00 | 0.00 | 52 | 1012.9 |
| 20260504221005 | 82 | 116 | 2.0 | 7.0 | 0.00 | 0.00 | 0.00 | 51 | 1012.9 |
| 20260504220507 | 82 | 56 | 1.0 | 7.0 | 0.00 | 0.00 | 0.00 | 53 | 1012.9 |
| 20260504220022 | 82 | 223 | 2.0 | 6.0 | 0.00 | 0.00 | 0.00 | 52 | 1012.9 |
| 20260504215512 | 82 | 98 | 2.0 | 6.0 | 0.00 | 0.00 | 0.00 | 54 | 1013.0 |
| 20260504215010 | 82 | 78 | 1.0 | 4.0 | 0.00 | 0.00 | 0.00 | 54 | 1012.8 |
| 20260504214537 | 82 | 75 | 2.0 | 8.0 | 0.00 | 0.00 | 0.00 | 52 | 1012.7 |
| 20260504214014 | 83 | 146 | 4.0 | 11.0 | 0.00 | 0.00 | 0.00 | 51 | 1012.8 |
| 20260504213510 | 83 | 175 | 4.0 | 11.0 | 0.00 | 0.00 | 0.00 | 52 | 1012.9 |
| 20260504213028 | 83 | 156 | 3.0 | 6.0 | 0.00 | 0.00 | 0.00 | 52 | 1012.8 |
| 20260504212512 | 83 | 157 | 2.0 | 6.0 | 0.00 | 0.00 | 0.00 | 49 | 1012.8 |
| 20260504212013 | 83 | 121 | 3.0 | 6.0 | 0.00 | 0.00 | 0.00 | 49 | 1012.9 |
| 20260504211513 | 83 | 151 | 3.0 | 8.0 | 0.00 | 0.00 | 0.00 | 53 | 1013.1 |
| 20260504211006 | 83 | 145 | 3.0 | 8.0 | 0.00 | 0.00 | 0.00 | 50 | 1013.1 |
| 20260504210512 | 84 | 136 | 4.0 | 7.0 | 0.00 | 0.00 | 0.00 | 53 | 1013.0 |
| 20260504210022 | 83 | 60 | 3.0 | 8.0 | 0.00 | 0.00 | 0.00 | 51 | 1013.0 |
| 20260504205507 | 84 | 154 | 2.0 | 8.0 | 0.00 | 0.00 | 0.00 | 52 | 1013.1 |
| 20260504205007 | 83 | 221 | 2.0 | 8.0 | 0.00 | 0.00 | 0.00 | 50 | 1012.9 |
| 20260504204522 | 83 | 146 | 2.0 | 9.0 | 0.00 | 0.00 | 0.00 | 51 | 1013.1 |
| 20260504204010 | 84 | 201 | 3.0 | 9.0 | 0.00 | 0.00 | 0.00 | 51 | 1013.1 |
| 20260504203509 | 84 | 181 | 5.0 | 11.0 | 0.00 | 0.00 | 0.00 | 51 | 1013.2 |
| 20260504203030 | 84 | 161 | 3.0 | 11.0 | 0.00 | 0.00 | 0.00 | 51 | 1013.2 |
| 20260504202508 | 84 | 168 | 2.0 | 8.0 | 0.00 | 0.00 | 0.00 | 48 | 1013.2 |
| 20260504202013 | 84 | 154 | 2.0 | 8.0 | 0.00 | 0.00 | 0.00 | 47 | 1013.2 |
| 20260504201526 | 85 | 110 | 3.0 | 9.0 | 0.00 | 0.00 | 0.00 | 46 | 1013.3 |
| 20260504201013 | 85 | 168 | 3.0 | 8.0 | 0.00 | 0.00 | 0.00 | 46 | 1013.4 |
| 20260504200507 | 85 | 111 | 3.0 | 9.0 | 0.00 | 0.00 | 0.00 | 48 | 1013.4 |
| 20260504200020 | 84 | 262 | 4.0 | 9.0 | 0.00 | 0.00 | 0.00 | 47 | 1013.4 |
| 20260504195507 | 84 | 126 | 1.0 | 7.0 | 0.00 | 0.00 | 0.00 | 46 | 1013.6 |
| 20260504195007 | 84 | 138 | 2.0 | 8.0 | 0.00 | 0.00 | 0.00 | 47 | 1013.6 |
| 20260504194523 | 84 | 178 | 4.0 | 8.0 | 0.00 | 0.00 | 0.00 | 49 | 1013.6 |
| 20260504194010 | 84 | 215 | 3.0 | 8.0 | 0.00 | 0.00 | 0.00 | 49 | 1013.7 |
| 20260504193514 | 83 | 167 | 4.0 | 10.0 | 0.00 | 0.00 | 0.00 | 50 | 1013.9 |
| 20260504193026 | 83 | 123 | 3.0 | 10.0 | 0.00 | 0.00 | 0.00 | 50 | 1013.9 |
| 20260504192514 | 84 | 174 | 4.0 | 10.0 | 0.00 | 0.00 | 0.00 | 49 | 1013.8 |
| 20260504192010 | 84 | 189 | 3.0 | 10.0 | 0.00 | 0.00 | 0.00 | 49 | 1013.8 |
| 20260504191526 | 85 | 164 | 4.0 | 9.0 | 0.00 | 0.00 | 0.00 | 51 | 1014.0 |
| 20260504191013 | 84 | 111 | 2.0 | 10.0 | 0.00 | 0.00 | 0.00 | 51 | 1014.0 |
| 20260504190511 | 84 | 197 | 4.0 | 10.0 | 0.00 | 0.00 | 0.00 | 51 | 1014.1 |
| 20260504190028 | 84 | 114 | 2.0 | 7.0 | 0.00 | 0.00 | 0.00 | 52 | 1014.2 |
| 20260504185510 | 84 | 134 | 2.0 | 12.0 | 0.00 | 0.00 | 0.00 | 49 | 1014.4 |
| 20260504185005 | 84 | 123 | 5.0 | 13.0 | 0.00 | 0.00 | 0.00 | 50 | 1014.5 |
| 20260504184527 | 84 | 169 | 4.0 | 13.0 | 0.00 | 0.00 | 0.00 | 48 | 1014.4 |
| 20260504184009 | 84 | 145 | 4.0 | 8.0 | 0.00 | 0.00 | 0.00 | 49 | 1014.6 |
| 20260504183514 | 84 | 83 | 3.0 | 8.0 | 0.00 | 0.00 | 0.00 | 51 | 1014.7 |
| 20260504183031 | 84 | 112 | 2.0 | 9.0 | 0.00 | 0.00 | 0.00 | 50 | 1014.7 |
| 20260504182508 | 83 | 174 | 4.0 | 9.0 | 0.00 | 0.00 | 0.00 | 50 | 1014.8 |
| 20260504182009 | 83 | 218 | 2.0 | 10.0 | 0.00 | 0.00 | 0.00 | 57 | 1015.0 |
| 20260504181526 | 82 | 97 | 3.0 | 10.0 | 0.00 | 0.00 | 0.00 | 51 | 1015.2 |
| 20260504181010 | 83 | 100 | 2.0 | 9.0 | 0.00 | 0.00 | 0.00 | 51 | 1015.2 |
| 20260504180507 | 83 | 43 | 3.0 | 11.0 | 0.00 | 0.00 | 0.00 | 50 | 1015.2 |
| 20260504180027 | 82 | 84 | 7.0 | 11.0 | 0.00 | 0.00 | 0.00 | 50 | 1015.2 |
| 20260504175508 | 82 | 195 | 5.0 | 10.0 | 0.00 | 0.00 | 0.00 | 50 | 1015.2 |
| 20260504175011 | 83 | 88 | 5.0 | 10.0 | 0.00 | 0.00 | 0.00 | 51 | 1015.4 |
| 20260504174528 | 82 | 177 | 4.0 | 10.0 | 0.00 | 0.01 | 0.00 | 53 | 1015.4 |
| 20260504174010 | 82 | 118 | 5.0 | 12.0 | 0.00 | 0.01 | 0.00 | 51 | 1015.5 |
| 20260504173512 | 82 | 133 | 6.0 | 14.0 | 0.00 | 0.01 | 0.00 | 48 | 1015.5 |
| 20260504173021 | 82 | 170 | 4.0 | 14.0 | 0.00 | 0.01 | 0.00 | 51 | 1015.6 |
| 20260504172512 | 82 | 60 | 7.0 | 14.0 | 0.00 | 0.01 | 0.00 | 50 | 1015.6 |
| 20260504172011 | 82 | 108 | 4.0 | 10.0 | 0.00 | 0.01 | 0.00 | 50 | 1015.7 |
| 20260504171525 | 82 | 95 | 4.0 | 9.0 | 0.00 | 0.01 | 0.00 | 54 | 1015.7 |
| 20260504171014 | 82 | 182 | 4.0 | 12.0 | 0.00 | 0.01 | 0.00 | 54 | 1015.8 |
| 20260504170508 | 81 | 135 | 7.0 | 12.0 | 0.00 | 0.01 | 0.00 | 50 | 1015.8 |
| 20260504151007 | 78 | 174 | 5.0 | 10.0 | 0.00 | 0.02 | 0.00 | 58 | 1016.7 |
| 20260504150510 | 78 | 96 | 3.0 | 9.0 | 0.00 | 0.02 | 0.00 | 64 | 1016.6 |
| 20260504141013 | 76 | 66 | 4.0 | 12.0 | 0.00 | 0.02 | 0.00 | 66 | 1016.4 |
| 20260504140510 | 76 | 118 | 5.0 | 12.0 | 0.00 | 0.02 | 0.00 | 66 | 1016.4 |
| 20260504130507 | 74 | 122 | 5.0 | 11.0 | 0.00 | 0.03 | 0.00 | 69 | 1016.0 |
| 20260504110510 | 65 | 66 | 5.0 | 10.0 | 0.00 | 0.04 | 0.00 | 83 | 1015.5 |
| 20260504100505 | 65 | 100 | 4.0 | 6.0 | 0.00 | 0.05 | 0.00 | 85 | 1014.9 |
| 20260504081529 | 66 | 84 | 2.0 | 3.0 | 0.00 | 0.07 | 0.00 | 85 | 1014.9 |
| 20260504081009 | 66 | 87 | 1.0 | 4.0 | 0.00 | 0.07 | 0.00 | 85 | 1014.7 |
| 20260504080517 | 66 | 91 | 2.0 | 5.0 | 0.00 | 0.07 | 0.00 | 85 | 1014.7 |
| 20260504050503 | 68 | 89 | 2.0 | 5.0 | 0.00 | 0.25 | 0.00 | 82 | 1016.1 |
| 20260504050006 | 68 | 19 | 1.0 | 5.0 | 0.00 | 0.25 | 0.00 | 82 | 1016.0 |
| 20260504045503 | 68 | 79 | 2.0 | 4.0 | 0.00 | 0.25 | 0.00 | 82 | 1015.9 |
| 20260504045005 | 68 | 60 | 2.0 | 4.0 | 0.00 | 0.25 | 0.00 | 82 | 1016.1 |
| 20260504044510 | 69 | 103 | 2.0 | 4.0 | 0.00 | 0.25 | 0.00 | 82 | 1016.2 |
| 20260504044006 | 69 | 97 | 2.0 | 4.0 | 0.00 | 0.25 | 0.00 | 81 | 1016.2 |
| 20260504043504 | 69 | 73 | 2.0 | 4.0 | 0.00 | 0.25 | 0.00 | 81 | 1016.3 |
| 20260504043010 | 69 | 100 | 1.0 | 5.0 | 0.00 | 0.25 | 0.00 | 81 | 1016.3 |
| 20260504042504 | 69 | 99 | 2.0 | 5.0 | 0.00 | 0.25 | 0.00 | 80 | 1016.4 |
| 20260504042004 | 70 | 98 | 3.0 | 6.0 | 0.00 | 0.25 | 0.00 | 80 | 1016.5 |
| 20260504041508 | 70 | 84 | 2.0 | 6.0 | 0.00 | 0.25 | 0.00 | 80 | 1016.5 |
| 20260504041003 | 70 | 122 | 2.0 | 4.0 | 0.00 | 0.25 | 0.00 | 79 | 1016.5 |
| 20260504040503 | 70 | 98 | 2.0 | 4.0 | 0.00 | 0.25 | 0.00 | 79 | 1016.5 |
| 20260504040006 | 70 | 81 | 1.0 | 5.0 | 0.00 | 0.25 | 0.00 | 79 | 1016.6 |
| 20260504035503 | 70 | 117 | 2.0 | 5.0 | 0.00 | 0.25 | 0.25 | 79 | 1016.7 |
| 20260504035003 | 70 | 103 | 1.0 | 6.0 | 0.00 | 0.25 | 0.25 | 79 | 1016.7 |
| 20260504034510 | 70 | 123 | 2.0 | 6.0 | 0.00 | 0.25 | 0.25 | 79 | 1016.7 |
| 20260504034004 | 70 | 103 | 0.0 | 5.0 | 0.00 | 0.25 | 0.25 | 79 | 1016.6 |
| 20260504033504 | 70 | 94 | 3.0 | 7.0 | 0.00 | 0.25 | 0.25 | 78 | 1016.6 |
| 20260504033007 | 71 | 103 | 2.0 | 7.0 | 0.00 | 0.25 | 0.25 | 79 | 1016.6 |
| 20260504032504 | 71 | 112 | 2.0 | 6.0 | 0.00 | 0.25 | 0.25 | 78 | 1016.7 |
| 20260504032004 | 71 | 111 | 3.0 | 7.0 | 0.00 | 0.25 | 0.25 | 78 | 1016.6 |
| 20260504031511 | 71 | 108 | 2.0 | 7.0 | 0.00 | 0.25 | 0.25 | 79 | 1016.6 |
| 20260504031003 | 71 | 125 | 2.0 | 5.0 | 0.00 | 0.25 | 0.25 | 79 | 1016.5 |
| 20260504030504 | 71 | 90 | 1.0 | 5.0 | 0.00 | 0.25 | 0.25 | 79 | 1016.5 |
| 20260504030008 | 71 | 79 | 3.0 | 5.0 | 0.00 | 0.25 | 0.25 | 79 | 1016.5 |
| 20260504025504 | 71 | 70 | 1.0 | 4.0 | 0.00 | 0.25 | 0.25 | 79 | 1016.5 |
| 20260504025006 | 71 | 127 | 1.0 | 4.0 | 0.00 | 0.25 | 0.25 | 79 | 1016.6 |
| 20260504024509 | 71 | 91 | 1.0 | 6.0 | 0.00 | 0.25 | 0.25 | 78 | 1016.7 |
| 20260504024003 | 71 | 179 | 1.0 | 6.0 | 0.00 | 0.25 | 0.25 | 78 | 1016.6 |
| 20260504023504 | 71 | 170 | 2.0 | 8.0 | 0.00 | 0.25 | 0.25 | 78 | 1016.4 |
| 20260504023010 | 71 | 158 | 2.0 | 8.0 | 0.00 | 0.25 | 0.25 | 79 | 1016.3 |
| 20260504022508 | 71 | 151 | 1.0 | 3.0 | 0.00 | 0.25 | 0.25 | 80 | 1016.3 |
| 20260504022005 | 71 | 83 | 1.0 | 3.0 | 0.00 | 0.25 | 0.25 | 80 | 1016.2 |
| 20260504021511 | 71 | 126 | 1.0 | 2.0 | 0.00 | 0.25 | 0.25 | 80 | 1016.2 |
| 20260504021004 | 72 | 121 | 1.0 | 3.0 | 0.00 | 0.25 | 0.25 | 80 | 1016.2 |
| 20260504020504 | 72 | 193 | 1.0 | 3.0 | 0.00 | 0.25 | 0.25 | 80 | 1016.1 |
| 20260504020007 | 72 | 177 | 1.0 | 3.0 | 0.00 | 0.25 | 0.25 | 80 | 1016.0 |
| 20260504015504 | 72 | 192 | 1.0 | 3.0 | 0.00 | 0.25 | 0.25 | 79 | 1015.9 |
| 20260504015004 | 72 | 190 | 0.0 | 2.0 | 0.00 | 0.25 | 0.25 | 79 | 1016.0 |
| 20260504014510 | 72 | 170 | 1.0 | 2.0 | 0.00 | 0.25 | 0.25 | 79 | 1016.0 |
| 20260504014003 | 72 | 175 | 1.0 | 3.0 | 0.00 | 0.25 | 0.25 | 78 | 1016.0 |
| 20260504013503 | 72 | 161 | 1.0 | 3.0 | 0.00 | 0.25 | 0.25 | 78 | 1016.0 |
| 20260504013008 | 72 | 202 | 1.0 | 3.0 | 0.00 | 0.25 | 0.25 | 77 | 1016.0 |
| 20260504012504 | 73 | 188 | 0.0 | 2.0 | 0.00 | 0.25 | 0.25 | 77 | 1015.9 |
| 20260504012005 | 73 | 187 | 0.0 | 3.0 | 0.00 | 0.25 | 0.25 | 77 | 1015.8 |
| 20260504011511 | 73 | 196 | 0.0 | 3.0 | 0.00 | 0.25 | 0.25 | 76 | 1015.7 |